Temperature
16 15 15 15 15 15 15 15 15 15 14 15 15 15 15 15 15 15 15 15 15 15 15 15 15 15 15 15 14 14 14 15 15 15 14 14 14 14
15 15 15 15 15 15 15 15 15 15 14 14 14 15 15 15 15 15 15 15 15 15 15 15 15 15 14 14 14 14 14 14 14 14 14 14 14 14
15 15 15 15 15 15 15 15 15 15 14 14 14 14 14 15 14 14 14 14 14 14 14 14 14 14 14 14 14 14 14 14 14 14 14 14 14 14
15 15 15 15 15 14 14 14 14 14 14 14 14 14 14 14 14 14 14 14 14 14 14 14 14 14 14 14 14 14 14 14 14 14 14 14 14 14
14 14 14 14 14 14 14 14 14 14 14 14 14 14 14 14 14 14 14 14 14 14 14 14 14 14 14 14 13 13 13 13 13 14 14 14 14 14
14 14 14 14 14 14 14 14 13 13 13 13 13 13 13 13 13 13 13 13 13 14 14 13 13 13 13 13 13 13 13 13 13 13 13 14 13 14
14 14 14 13 13 13 13 13 13 13 13 13 13 13 13 13 13 13 12 13 13 13 13 13 13 13 13 13 13 13 13 13 13 13 13 13 13 13
14 14 13 13 13 13 13 13 13 13 13 13 13 13 12 12 12 12 12 12 12 12 12 12 12 13 13 13 13 13 13 13 13 13 13 13 13 13
13 13 13 13 13 13 13 13 13 13 12 12 12 12 12 12 12 12 12 12 12 12 12 12 12 12 12 12 12 12 12 12 13 13 13 13 13 13
13 13 13 13 12 12 12 12 12 12 12 12 12 12 12 12 12 12 12 12 11 11 11 11 11 12 12 12 12 12 12 12 12 12 12 12 12 12
12 12 12 12 12 12 12 12 12 12 12 12 12 12 12 12 11 11 11 11 11 11 11 11 11 11 11 11 11 11 11 12 12 12 12 12 12 12
12 12 12 12 12 12 12 12 12 12 12 11 11 11 11 11 11 11 11 11 11 10 10 10 10 10 10 11 11 11 11 11 11 11 11 12 12 12
12 12 12 11 11 11 11 11 11 11 11 11 11 11 11 11 11 11 11 11 10 10 10 10 10 10 10 10 10 11 11 11 11 11 11 11 11 11
11 11 11 11 11 11 11 11 11 11 11 11 11 11 10 10 10 10 10 10 10 10 10 10 10 10 10 9 10 10 10 10 10 11 11 11 11 11
11 11 11 11 11 11 11 11 11 10 10 10 10 10 10 10 10 10 10 10 10 10 10 10 9 9 9 9 9 10 10 10 10 10 10 11 11 11
11 11 11 11 10 10 10 10 10 10 10 10 10 10 10 10 10 10 10 9 9 9 9 9 9 9 9 9 9 9 9 9 10 10 10 10 10 10
10 10 10 10 10 10 10 10 10 10 9 9 9 9 9 9 9 9 9 9 9 9 9 9 9 9 9 9 9 9 9 9 9 9 9 10 10 10
10 10 10 10 9 9 9 9 9 9 9 9 9 9 9 9 9 9 8 8 8 8 8 8 8 8 8 8 8 9 9 9 9 9 9 9 9 9
9 9 9 9 9 9 9 9 9 9 9 8 8 8 8 8 8 8 8 8 8 8 8 8 8 8 8 8 8 8 8 8 8 8 8 8 8 8
9 9 9 9 9 9 9 8 8 8 8 8 8 8 8 8 8 8 8 8 8 8 8 8 8 8 8 8 8 8 8 8 8 8 8 8 8 8
9 9 9 8 8 8 8 8 8 8 8 8 8 8 8 8 8 8 8 8 8 8 8 8 8 8 8 8 8 8 8 8 8 7 7 7 7 7
8 8 8 8 8 8 8 8 8 8 8 8 8 8 8 8 8 7 7 7 7 7 7 7 8 8 8 8 7 8 8 7 7 7 7 7 7 7
8 8 8 8 8 8 8 8 8 7 7 7 7 7 7 7 7 7 7 7 7 7 7 7 7 7 7 7 7 7 7 7 7 7 7 7 7 7
Wind_Speed
1 1 1 1 1 1 2 2 2 2 3 2 1 1 2 2 3 4 4 6 6 7 7 8 9 9 10 9 9 9 9 10 10 10 10 10 10 11
1 1 1 2 1 1 2 2 2 3 3 2 2 2 2 3 3 3 4 5 6 7 8 8 9 9 9 8 8 8 9 9 9 9 9 9 9 10
1 1 2 1 1 1 1 1 2 2 2 2 2 2 2 2 2 2 2 3 3 5 7 7 8 7 8 8 8 7 8 8 8 9 9 9 9 9
2 1 2 2 2 2 1 1 1 2 2 3 3 2 2 2 2 2 2 2 2 3 4 5 6 7 7 8 8 7 7 7 8 9 9 9 9 9
2 2 2 1 2 2 1 1 1 1 1 2 3 2 2 2 2 2 2 2 2 2 3 4 5 6 6 7 8 7 7 8 8 8 9 9 9 9
2 2 2 2 2 2 2 2 1 1 1 1 1 2 2 2 1 2 2 2 3 2 2 2 3 5 6 7 7 7 7 8 8 8 9 8 8 8
3 2 2 2 2 2 2 2 2 1 1 1 1 1 2 1 2 2 2 2 3 2 2 2 2 2 3 5 6 7 8 8 8 9 8 8 8 8
3 3 3 3 3 3 2 2 3 3 3 2 2 2 3 3 2 2 2 2 3 1 1 2 1 2 3 3 3 5 7 7 8 8 8 8 8 8
3 3 3 3 3 3 3 3 2 1 3 3 3 4 4 4 3 3 3 3 3 2 1 3 2 3 3 3 4 4 4 6 7 7 7 7 7 7
3 3 2 3 3 2 2 2 2 2 2 2 3 4 4 3 4 3 3 2 2 1 1 2 2 3 3 3 4 5 5 5 5 6 7 8 8 7
3 3 2 3 4 3 2 2 2 3 2 1 2 3 2 2 2 2 1 1 1 2 1 2 2 2 2 3 3 4 4 4 5 5 5 6 7 7
3 3 4 4 4 3 2 2 2 3 2 2 3 3 3 1 1 3 3 3 2 2 1 2 1 1 2 2 2 2 2 3 4 3 4 5 5 4
3 4 4 5 5 5 3 2 3 2 1 1 2 2 2 1 1 1 2 3 3 3 2 2 1 1 2 2 2 2 1 1 2 2 3 3 4 5
3 3 4 6 6 6 3 3 3 1 1 1 1 2 2 2 2 1 1 2 2 3 3 3 2 2 2 2 2 2 2 1 1 1 1 2 3 5
3 4 5 6 5 4 4 3 1 1 1 1 2 2 2 2 2 1 1 0 1 1 1 2 3 2 3 3 3 2 2 2 1 1 1 1 1 1
3 4 5 5 3 3 3 2 1 0 1 1 2 2 2 1 1 1 1 1 1 2 2 1 2 3 3 3 2 2 2 2 1 1 1 1 1 2
3 2 3 3 4 3 3 3 2 1 1 1 1 2 2 2 2 1 1 0 1 2 2 2 1 0 2 2 2 2 2 2 2 1 1 1 1 2
1 2 3 3 3 3 3 3 2 2 2 2 2 2 2 2 2 2 1 1 2 2 3 2 1 1 1 1 3 3 2 2 2 1 1 2 2 2
0 2 3 3 4 4 3 3 3 3 2 2 2 2 2 2 2 2 2 2 3 3 3 2 1 2 2 4 2 3 3 2 2 1 2 2 2 2
2 3 3 4 4 4 4 4 4 3 3 2 3 3 3 3 3 3 3 3 4 3 3 2 2 3 4 4 3 2 2 2 2 2 2 2 2 2
3 3 4 4 4 4 4 4 4 4 4 3 3 3 3 3 3 3 3 4 3 3 4 4 4 4 3 2 2 2 1 2 3 3 2 2 2 2
4 4 4 4 4 4 4 3 4 4 4 4 4 4 4 4 4 4 3 3 3 3 4 3 2 1 2 3 3 3 2 1 1 2 3 3 2 3
5 4 4 4 4 4 4 4 4 4 4 4 4 4 4 4 4 4 4 3 3 3 3 2 1 1 2 2 2 2 2 1 1 1 2 4 5 5
Wind_Direction
257 244 242 261 230 223 209 202 198 235 265 269 269 270 273 263 271 262 257 252 245 242 236 230 231 229 226 226 224 222 220 220 221 224 227 230 232 231
285 272 272 263 262 245 223 220 213 213 240 254 266 288 285 283 272 262 257 258 253 244 238 230 228 226 224 224 224 224 223 221 221 224 226 229 232 234
329 304 288 275 274 272 250 225 222 213 233 275 285 294 277 289 296 282 276 261 261 245 235 227 225 225 223 224 224 224 223 220 221 226 228 231 232 232
320 313 304 307 304 292 270 248 237 227 217 265 297 307 288 277 290 296 307 281 262 248 232 224 222 223 222 221 219 219 221 223 225 227 228 229 230 232
325 305 299 302 297 301 279 258 255 246 234 237 276 292 292 287 308 313 311 305 284 272 256 239 230 225 222 220 217 218 221 226 230 228 227 227 229 231
324 314 306 281 263 263 265 256 238 219 210 214 259 279 282 290 291 298 309 308 293 295 307 277 254 241 233 225 222 222 223 228 229 229 228 227 228 229
329 325 318 304 285 273 265 249 218 208 207 219 247 273 287 290 272 261 271 294 286 278 299 285 278 272 261 243 234 231 229 231 230 228 226 223 223 223
311 322 327 335 330 314 295 263 229 216 218 223 233 247 264 266 271 262 265 284 284 287 268 278 264 267 271 253 248 237 233 233 232 230 226 222 222 223
297 310 326 340 348 342 352 349 321 268 207 206 226 245 251 247 235 242 243 257 264 267 253 263 263 266 272 267 250 243 243 239 233 230 225 221 219 222
304 299 307 322 337 349 6 3 339 310 254 221 228 246 250 242 222 225 229 249 274 260 227 251 272 274 279 273 245 235 245 250 245 238 231 223 218 218
322 326 326 323 333 352 4 341 329 318 309 304 279 280 285 255 194 165 177 197 267 271 217 235 260 285 281 266 257 239 245 250 252 247 236 225 223 219
330 332 339 332 326 321 312 308 301 297 311 329 331 331 328 318 194 195 201 207 232 259 222 205 243 278 283 271 270 266 265 259 252 251 245 238 227 218
322 325 324 328 321 310 295 271 266 286 308 312 328 335 344 347 303 238 219 211 219 245 222 190 221 235 252 281 299 300 289 276 273 273 248 240 224 208
305 314 318 327 325 316 302 285 290 307 1 349 334 322 325 322 310 294 266 232 230 244 230 203 217 222 233 264 284 311 312 328 341 312 279 228 225 220
301 310 318 322 324 324 321 319 355 45 30 329 297 290 293 297 309 313 316 320 344 310 255 220 222 229 226 239 255 271 288 298 310 310 314 272 251 232
312 321 324 329 336 337 345 350 4 12 219 274 287 298 318 332 334 316 302 327 331 326 324 299 235 220 229 240 239 257 263 263 274 282 274 287 277 236
327 338 353 354 355 348 343 343 343 344 313 299 298 312 313 311 308 303 272 263 266 289 309 325 334 238 229 237 248 261 262 262 255 245 236 284 297 291
356 334 327 325 322 317 316 321 321 312 303 297 294 296 297 297 301 305 289 255 262 273 282 289 301 321 302 270 229 241 251 258 249 222 230 258 285 293
311 298 301 303 304 302 296 289 288 292 288 291 297 298 292 287 286 283 271 267 269 269 270 268 249 226 251 271 274 232 239 255 234 240 250 249 261 285
271 280 288 295 296 295 294 292 291 296 297 291 289 292 291 284 279 274 267 267 267 268 270 268 246 232 236 250 262 277 237 231 241 246 261 269 274 272
284 282 284 288 291 292 291 292 292 291 292 288 284 279 272 270 273 271 270 269 267 271 268 267 264 251 239 204 230 266 271 235 229 236 234 244 264 266
275 276 279 281 285 288 288 288 290 291 291 284 283 280 274 263 262 264 263 265 268 271 275 283 294 216 201 213 243 260 283 317 283 248 249 242 237 235
271 272 275 277 280 284 281 277 277 280 280 278 279 278 274 270 266 264 260 253 260 268 276 286 297 263 235 233 238 253 262 290 313 317 300 299 259 251
Height
1513 1513 1513 1512 1513 1513 1513 1513 1513 1511 1510 1510 1511 1512 1512 1512 1512 1513 1513 1514 1514 1515 1515 1515 1516 1517 1517 1518 1519 1520 1521 1522 1523 1525 1526 1527 1528 1529
1512 1511 1511 1510 1510 1510 1510 1510 1510 1510 1508 1508 1508 1509 1509 1509 1509 1509 1510 1510 1511 1511 1511 1512 1512 1513 1514 1514 1515 1516 1518 1519 1520 1521 1522 1523 1524 1525
1510 1510 1509 1509 1508 1508 1508 1507 1507 1507 1506 1506 1506 1506 1506 1506 1506 1506 1506 1506 1507 1507 1508 1508 1508 1509 1510 1511 1512 1512 1514 1515 1516 1517 1518 1519 1520 1521
1509 1508 1507 1506 1506 1505 1505 1505 1505 1505 1504 1503 1503 1503 1503 1503 1503 1503 1503 1503 1503 1504 1504 1504 1505 1505 1506 1507 1508 1508 1509 1510 1512 1513 1514 1515 1516 1517
1507 1506 1505 1504 1504 1503 1503 1502 1502 1502 1501 1501 1500 1500 1500 1500 1500 1500 1500 1500 1500 1500 1500 1501 1501 1501 1502 1503 1504 1504 1505 1506 1507 1508 1509 1510 1511 1512
1505 1504 1503 1502 1501 1501 1500 1500 1499 1499 1499 1498 1497 1497 1497 1497 1496 1496 1496 1496 1496 1496 1496 1497 1497 1498 1498 1498 1499 1500 1501 1502 1503 1504 1505 1506 1507 1508
1503 1502 1501 1500 1499 1498 1498 1497 1497 1496 1496 1495 1495 1494 1494 1493 1493 1493 1493 1493 1493 1493 1492 1493 1493 1493 1494 1494 1495 1496 1497 1498 1499 1500 1501 1502 1503 1504
1501 1500 1499 1498 1496 1495 1495 1494 1494 1493 1492 1492 1492 1491 1491 1491 1491 1491 1490 1490 1489 1489 1489 1489 1489 1489 1490 1490 1491 1492 1493 1494 1495 1495 1496 1497 1498 1499
1499 1498 1497 1496 1494 1493 1491 1491 1490 1490 1490 1490 1489 1488 1488 1487 1487 1487 1487 1487 1486 1486 1486 1485 1486 1485 1486 1487 1487 1488 1489 1489 1490 1491 1492 1493 1494 1494
1497 1495 1494 1493 1492 1490 1489 1488 1487 1486 1486 1486 1486 1486 1485 1485 1485 1484 1483 1483 1483 1483 1483 1482 1482 1482 1483 1483 1484 1484 1485 1485 1486 1486 1487 1488 1489 1490
1494 1493 1491 1490 1489 1488 1486 1485 1484 1483 1483 1483 1483 1482 1482 1481 1481 1481 1480 1480 1479 1479 1480 1479 1479 1479 1479 1480 1480 1481 1481 1481 1482 1482 1483 1483 1484 1485
1492 1490 1489 1487 1486 1485 1483 1482 1481 1480 1480 1479 1479 1479 1478 1477 1477 1477 1476 1476 1476 1476 1476 1476 1476 1476 1476 1476 1477 1477 1477 1477 1478 1478 1479 1479 1480 1481
1489 1487 1486 1485 1483 1482 1480 1479 1478 1478 1477 1476 1476 1475 1475 1474 1474 1473 1473 1473 1473 1473 1474 1474 1473 1473 1474 1473 1473 1474 1474 1474 1474 1474 1475 1475 1476 1476
1486 1485 1483 1482 1481 1479 1477 1476 1476 1475 1474 1473 1473 1472 1472 1471 1471 1470 1470 1470 1470 1470 1470 1471 1470 1471 1471 1470 1470 1470 1471 1471 1471 1471 1471 1471 1471 1472
1485 1483 1481 1480 1478 1476 1475 1474 1472 1471 1471 1470 1470 1470 1469 1469 1468 1468 1468 1467 1467 1467 1467 1467 1467 1467 1468 1468 1468 1468 1468 1468 1468 1468 1468 1468 1468 1467
1483 1481 1479 1477 1475 1474 1473 1471 1470 1469 1469 1468 1468 1467 1467 1466 1465 1465 1464 1464 1464 1464 1465 1465 1464 1464 1464 1465 1465 1465 1465 1465 1465 1465 1465 1465 1465 1464
1481 1479 1477 1475 1473 1471 1471 1469 1468 1467 1467 1466 1465 1464 1464 1463 1462 1462 1461 1461 1461 1461 1461 1461 1462 1462 1462 1462 1462 1462 1462 1462 1462 1462 1461 1461 1461 1461
1479 1476 1475 1473 1471 1470 1468 1467 1466 1465 1464 1464 1463 1462 1461 1460 1459 1459 1458 1458 1457 1457 1458 1458 1458 1458 1459 1459 1459 1459 1459 1458 1458 1458 1458 1458 1457 1457
1477 1475 1473 1471 1470 1468 1467 1465 1464 1463 1462 1461 1460 1460 1459 1458 1457 1456 1455 1455 1454 1454 1454 1455 1455 1455 1455 1455 1455 1456 1455 1455 1455 1455 1455 1455 1454 1454
1474 1473 1471 1470 1468 1466 1465 1463 1462 1461 1460 1459 1458 1457 1456 1455 1454 1453 1452 1452 1452 1451 1451 1451 1451 1451 1452 1452 1452 1452 1453 1452 1452 1452 1452 1452 1452 1452
1472 1471 1469 1467 1466 1464 1463 1461 1460 1458 1457 1456 1455 1454 1454 1453 1452 1451 1450 1449 1449 1448 1448 1447 1448 1449 1449 1450 1449 1449 1449 1450 1449 1449 1449 1449 1448 1448
1469 1468 1466 1465 1463 1461 1460 1458 1457 1455 1454 1453 1452 1451 1450 1450 1449 1448 1447 1446 1446 1445 1445 1445 1445 1445 1445 1446 1446 1446 1446 1446 1446 1446 1446 1446 1445 1445
1466 1465 1463 1462 1460 1458 1457 1455 1453 1452 1451 1449 1448 1447 1447 1446 1445 1445 1444 1444 1443 1442 1442 1442 1442 1442 1442 1442 1442 1443 1443 1443 1443 1443 1443 1443 1443 1443